Погода в Яунде

Камерун     3°48′53″N   11°31′52″E
темп.,
°C
ветер,
м/с
пор.,
м/с
влажн.,
%
обл.,
%
осадки,
мм/ч
давл.,
гПа
погр.,
м
15 мая, сб
сб1501:00+19ююз009963 3.0 101212
04:00+19зсз119974 0.9 101115
07:00+20юз019942 0.9 101375
10:00+27з116945 0.0 1014877
13:00+27сз0176100 2.9 1011764
16:00+26зюз118023 1.6 1009386
19:00+21зсз129794 3.1 101046
22:00+20з1299100 1.4 101355
16 мая, вс
вс1601:00+20ссз0099100 4.2 101224
04:00+20зсз1199100 1.3 101224
07:00+21з119990 1.4 101358
10:00+25з1180100 0.0 1014568
13:00+27ююз117764 1.6 1010988
16:00+24зюз2395100 4.6 1009207
19:00+21з2398100 9.7 101174
22:00+21зсз1499100 3.7 1013155
17 мая, пн
пн1701:00+20з1610099 5.0 1013188
04:00+20з259997 2.1 1012246
07:00+20зсз1398100 2.5 1014243
10:00+22с0196100 0.1 1015240
13:00+24з118299 0.1 1012413
16:00+23св1186100 0.0 101086
19:00+21ю119899 0.0 101234
22:00+20зюз1199100 0.0 101428
18 мая, вт
вт1801:00+20з13100100 0.0 101387
04:00+19з12100100 1.9 101359
07:00+20сз1299100 2.4 1015222
10:00+22всв019399 0.0 1016298
13:00+26с236353 0.0 1013883
16:00+24ссв347262 0.0 1011759
19:00+21зюз1196100 0.8 101329
22:00+20ююз139898 0.0 1014132
19 мая, ср
ср1901:00+19ююз0199100 0.0 101415
04:00+19ююз119893 0.0 101416
07:00+19ю019598 0.0 101548
10:00+24ю1172100 0.0 1015389
13:00+27ююз1162100 0.0 1012667
16:00+25ююв2376100 0.0 1011307
19:00+20ююв119687 0.3 101317
22:00+19юз1198100 0.4 101412